Vertical_Velocity
2 1 -0 2 3 4 4 2 1 3 3 3 3 -1 -1 1 2 2 0 -1 -0 0 2 3 2 0 0 1 0 0 -2 -1 1 2 2 0 -2 -3 2 3 3 -1 -4
-1 0 3 -0 -0 2 2 3 3 3 2 -1 -1 -2 -0 1 -1 -0 1 1 -0 -2 -3 -3 -1 0 3 0 1 0 1 2 1 -1 2 3 1 -2 -1 2 2 4 3
-7 0 -2 -3 -3 -3 -2 -0 -1 1 -0 2 3 3 -0 -2 0 -1 1 -0 0 2 -1 -0 -2 1 8 10 4 0 -3 -0 3 3 3 2 2 3 -0 -2 -1 -1 0
-2 -0 -1 -4 1 3 2 -1 4 0 -1 -1 -1 -1 2 2 -1 -1 1 -3 -0 -2 -6 0 -3 -2 -6 -6 1 7 6 2 -2 -3 -4 2 1 -1 0 -1 -2 -1 1
-8 -5 -1 0 -0 -4 -10 -7 2 5 1 -2 -1 1 0 2 3 2 3 1 -1 -1 -1 -9 2 2 -1 4 -2 -1 -2 1 4 -0 -2 -0 6 7 6 4 3 0 -2
1 -2 -2 -3 -6 0 6 14 -9 1 3 -1 -1 -2 -2 -0 1 2 0 -1 2 2 3 2 -5 3 -2 1 1 -2 -1 0 1 -4 -4 -2 1 0 2 2 2 7 8
0 6 4 3 1 4 13 5 -2 2 -1 -1 -2 -4 -3 -1 -1 1 3 -1 -3 -2 0 -4 -9 -2 2 5 2 1 -3 0 -0 -5 1 -3 -3 -6 -1 1 4 2 0
-5 -4 11 18 -8 43 4 3 1 -1 3 -3 -1 -2 -2 -3 -3 -0 1 3 -3 0 0 -3 -2 2 -4 3 -7 -5 -1 -1 0 -1 -2 -5 -3 -8 -2 -5 -4 -4 -5
-1 27 30 -9 -36 11 -5 -1 -4 51 -5 -1 -4 -1 -4 -4 -1 -1 -2 2 2 1 3 2 -2 -2 -7 -6 -0 -4 -1 -1 0 -1 1 -1 -5 -0 -6 -3 3 -0 -4
0 5 10 7 15 7 -2 -5 2 -4 -1 36 -1 -2 -3 -5 -3 1 -1 1 0 -1 1 0 1 3 5 1 1 -3 -1 3 -0 3 -2 -5 -5 6 4 -2 -0 -1 0
9 17 6 1 7 3 -2 2 6 2 8 22 13 -3 1 -6 -0 -2 1 1 -2 -0 3 4 4 3 3 4 2 3 -2 -5 -2 -4 -3 -6 -6 -2 -2 2 -1 -4 3
2 6 -1 -7 -6 -1 1 -3 -1 -1 -2 20 -5 -6 5 -2 5 -1 3 4 4 1 1 1 2 0 1 2 -6 -2 -3 0 -2 0 2 5 -1 1 6 -0 -1 1 1
0 2 -0 -2 -4 -7 -4 9 1 5 3 5 15 38 -8 6 -2 0 3 5 1 -5 0 2 1 -1 -2 -4 -2 6 2 -4 -6 5 -6 -15 5 -2 -8 -7 -2 -3 -3
2 -2 1 2 -4 10 -4 5 15 16 16 25 -1 2 1 -1 -2 2 4 6 1 1 4 -3 1 2 6 3 0 2 -7 -3 1 -2 -2 4 7 -6 -11 -10 -5 -1 1
-2 -4 -9 2 2 -2 13 18 20 11 7 10 8 1 -2 -1 -6 9 5 0 -1 -3 5 -1 8 3 3 -1 -1 3 2 0 -6 0 2 8 1 -6 -6 -5 -9 -5 1
-1 1 -3 1 -0 -4 -6 -4 1 -2 -5 -4 -2 -0 -0 2 4 3 -2 -2 -2 3 3 -1 -0 -3 -5 -1 2 1 -1 -2 -2 -3 1 4 3 -0 -3 -6 3 -1 -3
-6 -3 1 3 2 11 4 -4 -5 -2 -2 -2 -2 3 5 5 -3 2 1 -2 -2 1 3 2 1 2 -5 3 4 5 -0 -5 6 -1 -0 -0 -1 -4 7 -5 0 2 0
-1 1 2 1 19 12 22 16 14 9 6 4 0 3 4 1 6 2 2 1 -1 -4 5 2 0 6 -4 -6 1 5 2 3 2 3 2 4 3 0 -2 1 -0 3 1
-2 -1 2 -3 2 1 2 3 3 2 -0 -1 1 2 2 1 2 0 -3 2 3 0 3 4 -1 2 1 -1 6 0 -2 2 0 4 -1 -3 3 0 -0 4 -0 -2 -0
-0 -3 -4 -1 1 1 0 2 2 1 1 1 1 2 1 -0 -0 1 2 0 -0 -2 -1 1 1 1 1 0 2 0 1 -0 0 -1 2 -0 1 1 -3 -1 -1 1 -1
2 3 2 2 0 -2 -4 -3 -3 -3 -3 -3 -3 -3 -0 3 1 -1 2 2 1 2 -1 -2 -3 -3 -0 -1 -0 -0 -1 -1 -1 4 2 5 3 -0 2 -2 -2 20 35
1 2 3 0 -1 -1 -1 -1 -0 -1 -0 1 1 1 0 0 -2 -1 -6 -5 -2 0 -1 -1 -1 -1 -0 1 1 -0 -1 -0 1 2 3 0 2 1 1 0 2 2 2
-1 -1 -1 -1 -0 0 0 1 -0 2 2 0 1 2 3 4 5 5 1 0 -1 -3 -2 -3 -3 -2 -1 1 2 1 1 0 2 1 0 1 1 2 2 2 3 1 2
-4 -5 -4 -3 -3 -2 -1 -2 -4 -3 -4 -1 -1 -2 -2 -2 -2 -1 -2 -3 -2 -3 -3 -1 -1 -2 -2 -4 -3 -2 -1 -3 -2 -3 -1 -2 -0 1 2 2 2 3 2
3 3 1 1 1 2 1 0 1 1 -1 -2 -1 -2 -3 -3 -3 -4 -5 -5 -5 -4 -5 -7 -7 -5 -5 -4 -4 -7 -10 -12 -9 -6 -4 -1 -0 1 2 2 -0 2 1
-1 -0 -1 -1 -0 -0 -0 0 -0 0 -0 -1 -1 -1 1 1 -1 -2 -3 -5 -5 -4 -2 -2 -2 -3 -1 -1 -2 -2 -1 1 1 -1 -3 0 1 2 -0 1 0 -0 0
Height
5893 5892 5892 5891 5892 5893 5892 5892 5892 5892 5891 5891 5890 5889 5888 5887 5887 5886 5885 5885 5886 5886 5886 5886 5885 5884 5883 5882 5881 5880 5879 5878 5878 5879 5878 5877 5875 5874 5874 5874 5874 5873 5872
5892 5892 5891 5891 5890 5890 5891 5891 5891 5889 5888 5887 5886 5885 5884 5884 5885 5885 5884 5882 5881 5880 5880 5880 5879 5880 5879 5877 5876 5875 5875 5874 5872 5871 5870 5870 5869 5868 5867 5866 5866 5866 5865
5891 5890 5890 5889 5886 5885 5885 5885 5885 5884 5882 5881 5880 5880 5880 5880 5879 5879 5878 5878 5877 5877 5876 5875 5874 5872 5872 5872 5872 5870 5868 5867 5867 5867 5867 5867 5865 5862 5861 5858 5858 5857 5856
5890 5890 5888 5888 5886 5884 5880 5879 5879 5879 5878 5876 5874 5874 5874 5874 5874 5874 5873 5873 5873 5872 5871 5870 5870 5869 5867 5867 5866 5864 5862 5859 5858 5857 5858 5858 5858 5857 5856 5854 5851 5848 5847
5886 5884 5883 5882 5882 5880 5880 5876 5874 5873 5872 5872 5870 5867 5867 5867 5868 5869 5869 5868 5867 5866 5864 5864 5863 5861 5860 5860 5858 5857 5858 5856 5853 5851 5849 5848 5847 5846 5845 5843 5841 5840 5838
5878 5877 5876 5874 5873 5870 5869 5868 5868 5864 5863 5864 5864 5863 5863 5862 5862 5862 5862 5861 5860 5860 5858 5856 5854 5853 5852 5851 5852 5850 5849 5849 5847 5844 5841 5837 5835 5834 5833 5832 5830 5829 5829
5867 5867 5864 5860 5858 5855 5855 5852 5853 5851 5853 5855 5856 5855 5855 5854 5855 5855 5854 5853 5852 5852 5851 5849 5849 5848 5843 5841 5840 5841 5840 5838 5835 5835 5830 5829 5827 5824 5823 5823 5821 5820 5819
5856 5851 5847 5837 5835 5838 5840 5835 5839 5840 5841 5844 5847 5847 5847 5846 5845 5845 5847 5846 5845 5843 5842 5840 5838 5836 5834 5832 5832 5828 5827 5826 5824 5824 5824 5822 5819 5817 5816 5815 5814 5813 5811
5844 5837 5831 5814 5823 5830 5825 5817 5824 5822 5831 5832 5836 5837 5837 5837 5836 5836 5837 5837 5835 5832 5831 5830 5827 5827 5827 5824 5821 5820 5819 5819 5818 5816 5815 5813 5813 5810 5808 5806 5804 5803 5802
5831 5826 5817 5814 5813 5814 5811 5808 5810 5814 5815 5817 5822 5826 5828 5827 5826 5826 5828 5827 5825 5821 5821 5819 5818 5817 5818 5818 5816 5813 5811 5811 5809 5808 5806 5804 5802 5800 5798 5797 5795 5794 5794
5818 5814 5812 5807 5800 5794 5792 5790 5792 5795 5799 5805 5810 5815 5817 5816 5817 5817 5819 5818 5816 5812 5811 5810 5809 5809 5808 5806 5805 5803 5802 5800 5798 5796 5796 5793 5793 5792 5789 5786 5785 5785 5784
5807 5803 5799 5793 5786 5779 5773 5770 5764 5768 5781 5792 5797 5804 5807 5805 5806 5809 5809 5809 5809 5805 5805 5804 5804 5801 5799 5797 5796 5794 5794 5792 5789 5787 5785 5784 5784 5782 5780 5777 5775 5773 5773
5799 5795 5791 5785 5778 5770 5761 5753 5750 5754 5768 5779 5786 5789 5795 5797 5798 5799 5799 5797 5797 5796 5795 5793 5792 5789 5788 5786 5783 5782 5782 5781 5778 5776 5775 5773 5770 5770 5769 5768 5767 5764 5763
5790 5784 5779 5775 5776 5768 5759 5752 5754 5758 5763 5774 5777 5781 5782 5784 5787 5787 5787 5787 5786 5785 5785 5783 5780 5779 5777 5775 5772 5770 5768 5767 5764 5762 5761 5760 5759 5758 5757 5757 5756 5755 5753
5784 5780 5775 5772 5770 5767 5763 5760 5759 5762 5766 5767 5769 5772 5773 5776 5777 5778 5778 5777 5775 5773 5772 5770 5767 5767 5765 5763 5761 5757 5755 5754 5753 5752 5750 5748 5747 5746 5745 5744 5743 5742 5743
5780 5777 5773 5771 5769 5768 5765 5763 5762 5763 5764 5765 5765 5766 5768 5769 5771 5772 5771 5769 5767 5765 5763 5761 5758 5757 5754 5749 5748 5746 5743 5742 5741 5739 5737 5735 5735 5734 5732 5731 5730 5729 5729
5775 5773 5771 5770 5768 5767 5765 5763 5761 5761 5762 5763 5763 5763 5764 5764 5763 5760 5760 5758 5756 5755 5753 5750 5747 5743 5741 5738 5735 5732 5730 5727 5726 5725 5723 5721 5720 5719 5718 5717 5716 5716 5717
5773 5772 5770 5768 5765 5763 5762 5762 5761 5760 5759 5758 5758 5756 5754 5753 5752 5751 5750 5748 5746 5742 5739 5736 5733 5731 5727 5726 5724 5720 5717 5715 5712 5709 5708 5706 5704 5703 5703 5702 5701 5701 5701
5770 5769 5767 5766 5763 5761 5759 5758 5757 5756 5755 5753 5752 5751 5749 5747 5745 5743 5741 5737 5733 5729 5726 5722 5718 5716 5713 5710 5707 5706 5702 5699 5696 5694 5692 5689 5688 5687 5686 5685 5685 5684 5684
5766 5765 5763 5762 5761 5757 5755 5752 5750 5748 5746 5745 5743 5742 5739 5737 5734 5730 5728 5723 5719 5715 5712 5708 5705 5701 5697 5694 5690 5687 5685 5681 5679 5676 5674 5672 5671 5669 5669 5668 5668 5667 5667
5761 5759 5757 5755 5753 5750 5748 5746 5744 5741 5739 5736 5733 5730 5726 5723 5720 5716 5712 5708 5704 5700 5696 5692 5688 5684 5679 5674 5670 5667 5663 5660 5657 5655 5653 5652 5651 5650 5651 5651 5653 5652 5650
5752 5751 5749 5746 5743 5741 5738 5736 5733 5731 5728 5725 5722 5719 5714 5709 5704 5700 5696 5692 5688 5683 5678 5674 5669 5664 5659 5654 5649 5645 5641 5638 5636 5633 5632 5630 5628 5627 5627 5628 5629 5631 5632
5746 5744 5740 5737 5734 5732 5729 5726 5723 5720 5717 5714 5710 5706 5702 5697 5692 5686 5681 5677 5672 5667 5661 5656 5650 5645 5641 5636 5631 5627 5623 5619 5616 5613 5611 5609 5607 5606 5606 5606 5606 5607 5608
5739 5737 5734 5731 5728 5725 5721 5718 5714 5710 5706 5702 5697 5692 5688 5684 5679 5675 5670 5665 5660 5654 5649 5644 5638 5632 5626 5621 5616 5611 5606 5602 5599 5595 5592 5589 5587 5586 5585 5585 5585 5586 5587
5731 5728 5725 5721 5717 5713 5708 5704 5700 5696 5692 5688 5683 5679 5674 5669 5665 5661 5657 5652 5646 5641 5635 5629 5623 5617 5611 5606 5600 5595 5591 5586 5582 5578 5575 5572 5570 5569 5568 5567 5567 5567 5567
5720 5716 5711 5707 5703 5699 5694 5690 5686 5682 5677 5673 5669 5665 5662 5658 5654 5649 5644 5639 5633 5628 5622 5616 5610 5604 5598 5592 5586 5580 5575 5570 5566 5563 5559 5557 5555 5553 5551 5550 5549 5549 5549